Regional Weather Roundup
Issued by NWS

Home | Current Version | Previous Version | Text Only | Print | Product List | Glossary Off
Versions: 1 2 3 4 5 6 7 8 9 10 11 12 13 14 15 16 17 18 19 20 21 22 23 24 25 26 27 28 29 30 31 32 33 34 35 36 37 38 39 40 41 42 43 44 45 46 47 48 49 50

000
ASUS43 KLOT 272112
RWRIL

ILLINOIS REGIONAL WEATHER ROUNDUP
NATIONAL WEATHER SERVICE CHICAGO/ROMEOVILLE IL
400 PM CDT FRI MAR 27 2015

NOTE: "FAIR" INDICATES FEW OR NO CLOUDS BELOW 12,000 FEET WITH NO
SIGNIFICANT WEATHER AND/OR OBSTRUCTIONS TO VISIBILITY.

* THESE STATIONS ARE NOT UNDER NWS QUALITY CONTROL. THEY ALSO MAY NOT
  REPORT WEATHER SUCH AS PRECIPITATION OR FOG.

ILZ001-002-007-009-015-016-024-272200-
NORTHWEST ILLINOIS

CITY           SKY/WX    TMP DP  RH WIND       PRES   REMARKS
MOLINE         SUNNY     37   7  28 NE7       30.17F WCI  32
STERLING*      SUNNY     36  12  38 N12       30.17S WCI  27
SAVANNA*       SUNNY     36   8  30 N12G18    30.17F WCI  28
$$

ILZ003-004-008-010-011-017-018-272200-
NORTH CENTRAL ILLINOIS

CITY           SKY/WX    TMP DP  RH WIND       PRES   REMARKS
ROCKFORD       SUNNY     34   5  29 N6G20     30.17F WCI  29
FREEPORT*      SUNNY     32   9  38 N13       30.18S WCI  22
ROCHELLE*      SUNNY     33  11  40 NW14G20   30.15F WCI  23
DE KALB*       MOSUNNY   31  10  42 N13G23    30.14F WCI  21
PERU*          MOSUNNY   35  12  38 N10G22    30.16S WCI  27
$$

ILZ005-006-012>014-019>023-272200-
NORTHEAST ILLINOIS

CITY           SKY/WX    TMP DP  RH WIND       PRES   REMARKS
CHICAGO-OHARE  MOSUNNY   29  12  49 NE14G22   30.15S WCI  18
CHICAGO-MIDWAY MOSUNNY   31  10  41 N17       30.16S WCI  19
AURORA         SUNNY     33   8  35 N15G23    30.14F WCI  23
LANSING*       MOSUNNY   28  11  48 NE16G23   30.16S WCI  16
JOLIET*        SUNNY     35   7  32 N10G20    30.14S WCI  27
WAUKEGAN       SUNNY     27  15  61 NE13G24   30.15S WCI  16
DUPAGE AIRPORT SUNNY     33   6  32 N10       30.13S WCI  25
KANKAKEE*      MOSUNNY   33  14  47 N9G16     30.14S WCI  25
WHEELING       SUNNY     28  12  51 NE15G24   30.17S WCI  16
MORRIS*        SUNNY     35  11  37 N7        30.13F WCI  29
ROMEOVILLE*    SUNNY     33   5  31 N12       30.13F WCI  24
NORTHERLY ISL    N/A     28  12  51 N14         N/A  WCI  17
$$

LMZ740>746-272200-
SOUTHERN LAKE MICHIGAN

STATION/POSITION SKY/WX   TEMP    WIND        PRES    VSBY  WAVE
                          AIR SEA DIR/SP/G                  HT/PER
                          (F)     (DEG/KT/KT) (MB)    (MI)  (FT/S)
HARRISON CRIB              24      10/ 20/ 23   N/A
BURNHAM HARBOR             28     360/ 14/ 18   N/A
CALUMET HARBOR             27     330/ 15/ 19 1020.4F
BURNS HARBOR               25     350/ 20     1021.3S
MICHIGAN CITY              23     340/ 25/ 30   N/A
$$

ILZ025>027-034>036-040-047-049-050-058-095>099-272200-
WEST-CENTRAL ILLINOIS

CITY           SKY/WX    TMP DP  RH WIND       PRES   REMARKS
QUINCY         MOSUNNY   41  15  35 N8        30.15F
GALESBURG*     SUNNY     36  10  34 NW7G16    30.17S WCI  30
MACOMB*        SUNNY     38  10  31 N12       30.19S WCI  30
JACKSONVILLE*  MOSUNNY   41  18  38 NW14      30.15S
PITTSFIELD*    PTSUNNY   39  20  45 NW9       30.16F WCI  33
$$

ILZ028>032-037-038-041>044-048-051>054-059>061-272200-
CENTRAL ILLINOIS

CITY           SKY/WX    TMP DP  RH WIND       PRES   REMARKS
PONTIAC        MOSUNNY   35  15  44 NW15G22   30.15S WCI  25
BLOOMINGTON    MOSUNNY   36  10  35 N14G25    30.14S WCI  27
DECATUR        PTSUNNY   37  15  40 N17       30.13F WCI  27
PEORIA         SUNNY     38  10  31 N8        30.16F WCI  32
LACON*         SUNNY     35  11  37 N10       30.16S WCI  27
LINCOLN*       SUNNY     38  13  35 N13       30.16S WCI  31
SPRINGFIELD    SUNNY     40  14  34 NW9G21    30.15S
TAYLORVILLE    MOSUNNY   37  23  56 N10G22    30.14S WCI  30
$$

ILZ033-039-045-046-055>057-062-063-272200-
EAST-CENTRAL ILLINOIS

CITY           SKY/WX    TMP DP  RH WIND       PRES   REMARKS
CHAMPAIGN      PTSUNNY   37  14  38 N16       30.11F WCI  28
DANVILLE*      CLOUDY    32  17  54 N13G20    30.08F WCI  23
RANTOUL*       MOSUNNY   36  12  36 N15       30.12S WCI  27
MATTOON        CLOUDY    35  21  56 N22       30.11R WCI  23
PARIS*         CLOUDY    32  23  69 NW14G21   30.13R WCI  22
$$

ILZ079-100>102-272200-
SOUTHWEST ILLINOIS

CITY           SKY/WX    TMP DP  RH WIND       PRES   REMARKS
BELLEVILLE     CLOUDY    40  20  44 NW15G23   30.15S
CAHOKIA*       MOSUNNY   42  21  43 NW14      30.16F
SPARTA*        CLOUDY    38  21  50 NW9       30.16S WCI  32
$$

ILZ064>066-069>071-074>076-080>082-084>086-088>090-092>094-272200-
SOUTH-CENTRAL ILLINOIS

CITY           SKY/WX    TMP DP  RH WIND       PRES   REMARKS
CARBONDALE     CLOUDY    39  21  48 N15G21    30.14S WCI  31
CAIRO*         CLOUDY    39  28  63 N14       30.13S WCI  31
EFFINGHAM*     CLOUDY    40  19  43 W17       30.13F
MARION         CLOUDY    41  23  48 N17       30.14S
MT. VERNON     CLOUDY    39  19  45 NW9       30.14S WCI  33
CENTRALIA*     CLOUDY    38  20  49 NW18      30.14S WCI  28
SALEM*         CLOUDY    40  23  50 N17       30.14S
METROPOLIS*    CLOUDY    39  30  68 N15G22    30.11S WCI  31
$$

ILZ067-068-072-073-078-083-087-091-272200-
SOUTHEAST ILLINOIS

CITY           SKY/WX    TMP DP  RH WIND       PRES   REMARKS
LAWRENCEVILLE  CLOUDY    38  21  50 N18       30.11S WCI  28
FLORA*         CLOUDY    39  22  50 N13G22    30.12S WCI  31
FAIRFIELD*     CLOUDY    39  20  45 N12G18    30.11F WCI  32
HARRISBURG*    CLOUDY    38  23  53 N13G18    30.13S WCI  31
ROBINSON*      CLOUDY    35  24  63 N15       30.12S WCI  26
CARMI*         PTSUNNY   39  18  43 NW12G20   30.11R WCI  32
$$

ABBREVIATIONS USED IN REMARKS
   TC - TEMPERATURE IN CELSIUS
  WCI - WIND CHILL INDEX
   HX - HEAT INDEX
  VSB - VISIBILITY
$$




USA.gov is the U.S. government's official web portal to all federal, state and local government web resources and services.